Tracking 25949 objects as of 9-Aug-2022
HD Live streaming from Space Station
objects crossing your sky now

STARLINK-4411

Track STARLINK-4411 now!
10-day predictions
STARLINK-4411 is classified as:


NORAD ID: 53202
Int'l Code: 2022-084P
Perigee: 397.7 km
Apogee: 400.2 km
Inclination: 97.7 °
Period: 92.4 minutes
Semi major axis: 6769 km
RCS: Unknown
Launch date: July 22, 2022
Source: United States (US)
Launch site: AIR FORCE WESTERN TEST RANGE (AFWTR)
aabbcc
Your satellite tracking list
Your tracking list is empty




NASA's NSSDC Master Catalog

Two Line Element Set (TLE):
1 53202U 22084P   22220.91667824 -.01065877  00000-0 -15336-1 0  9994
2 53202  97.6555 279.9157 0001837  87.1062  98.6447 15.58556356  1305
Source of the keplerian elements: AFSPC